Date String (YYYY-MM-DD hh:mm:ss) UTC,Instrument flags,absolute air pressure of the measurement (hPa),sample flow rate (lpm),inlet stack bypass flow (lpm),air temperature of the measurement (°C),ambient temperature measured by the external sensor (°C),aerosol sample conditioner tube jacket temperature (°C),OPC LED temperature (°C),internal box temperature (°C),relative humidity of the measurement (%),span deviation,mass concentration of particles derived from Lorenz-Mie calculation of OPC scattering (μg/m³),mass concentration of particles derived from Lorenz-Mie calculation of OPC scattering (μg/m³),mass concentration of particles derived from Lorenz-Mie calculation of OPC scattering (μg/m³)
DateTimeUTC,F1_M11,P_M11,Q1_M11,Q2_M11,T1_M11,T2_M11,T3_M11,T4_M11,T5_M11,U1_M11,ZSPAN_M11,X0_M11,X2_M11,X1_M11
2024-01-11 04:00:00,SystemResetWarning,0811.3,4.99,000.00,018.9,019.1,000.0,027.2,020.7,9.0,0000.0,0001.82,0000.82,0000.68
2024-01-11 04:01:00,SystemResetWarning,0811.3,4.98,000.00,019.0,019.0,000.0,027.2,020.3,9.0,0000.0,0001.08,0000.79,0000.67
2024-01-11 04:02:00,SystemResetWarning,0811.3,5.00,000.00,018.9,018.7,000.0,027.2,020.0,9.1,0000.0,0001.06,0000.78,0000.67
2024-01-11 04:03:00,SystemResetWarning,0811.3,5.00,000.00,018.9,018.4,000.0,027.2,020.0,9.1,0000.0,0001.18,0000.79,0000.68
2024-01-11 04:04:00,SystemResetWarning,0811.3,5.00,000.00,018.8,018.2,000.0,027.3,020.0,9.1,0000.0,0001.32,0000.80,0000.68
2024-01-11 04:05:00,SystemResetWarning,0811.3,5.00,000.00,018.8,018.1,000.0,027.3,020.0,9.2,0000.0,0001.34,0000.81,0000.69
2024-01-11 04:06:00,SystemResetWarning,0811.2,5.01,000.00,018.8,017.9,000.0,027.3,020.0,9.2,0000.0,0001.25,0000.78,0000.69
2024-01-11 04:07:00,SystemResetWarning,0811.2,5.01,000.00,018.8,017.8,000.0,027.3,020.0,9.2,0000.0,0001.29,0000.79,0000.70
2024-01-11 04:08:00,SystemResetWarning,0811.2,5.00,000.00,018.8,017.7,000.0,027.3,020.0,9.2,0000.0,0001.42,0000.84,0000.72
2024-01-11 04:09:00,SystemResetWarning,0811.2,5.00,000.00,018.8,017.6,000.0,027.3,020.0,9.3,0000.0,0001.45,0000.86,0000.74
2024-01-11 04:10:00,SystemResetWarning,0811.2,5.00,000.00,018.8,017.5,000.0,027.3,020.0,9.3,0000.0,0001.48,0000.88,0000.75
2024-01-11 04:11:00,SystemResetWarning,0811.3,5.00,000.00,018.8,017.5,000.0,027.3,020.0,9.3,0000.0,0001.54,0000.92,0000.78
2024-01-11 04:12:00,SystemResetWarning,0811.3,5.00,000.00,018.8,017.5,000.0,027.3,020.0,9.3,0000.0,0001.64,0000.96,0000.79
2024-01-11 04:13:00,SystemResetWarning,0811.3,5.00,000.00,018.8,017.5,000.0,027.3,020.0,9.3,0000.0,0001.70,0001.00,0000.82
2024-01-11 04:14:00,SystemResetWarning,0811.2,5.00,000.00,018.8,017.5,000.0,027.3,020.0,9.3,0000.0,0001.70,0001.03,0000.85
2024-01-11 04:15:00,SystemResetWarning,0811.2,5.01,000.00,018.8,017.5,000.0,027.3,020.0,9.3,0000.0,0001.63,0001.09,0000.88
2024-01-11 04:16:00,SystemResetWarning,0811.1,5.01,000.00,018.7,017.5,000.0,027.3,020.0,9.3,0000.0,0001.65,0001.11,0000.91
2024-01-11 04:17:00,SystemResetWarning,0811.1,5.00,000.00,018.7,017.6,000.0,027.2,020.0,9.4,0000.0,0001.74,0001.15,0000.94
2024-01-11 04:18:00,SystemResetWarning,0811.1,4.99,000.00,018.7,017.6,000.0,027.2,020.0,9.4,0000.0,0001.78,0001.19,0000.96
2024-01-11 04:19:00,SystemResetWarning,0811.2,4.99,000.00,018.7,017.6,000.0,027.2,020.0,9.4,0000.0,0001.73,0001.19,0000.97
2024-01-11 04:20:00,SystemResetWarning,0811.2,4.99,000.00,018.7,017.6,000.0,027.2,020.0,9.4,0000.0,0001.77,0001.22,0000.98
2024-01-11 04:21:00,SystemResetWarning,0811.2,5.00,000.00,018.7,017.6,000.0,027.2,020.0,9.4,0000.0,0001.81,0001.23,0000.99
2024-01-11 04:22:00,SystemResetWarning,0811.1,5.00,000.00,018.7,017.6,000.0,027.2,020.0,9.4,0000.0,0001.81,0001.24,0001.00
2024-01-11 04:23:00,SystemResetWarning,0811.1,5.00,000.00,018.7,017.6,000.0,027.2,020.0,9.4,0000.0,0001.73,0001.22,0001.01
2024-01-11 04:24:00,SystemResetWarning,0811.1,5.00,000.00,018.7,017.6,000.0,027.2,020.0,9.4,0000.0,0001.73,0001.23,0001.02
2024-01-11 04:25:00,SystemResetWarning,0811.1,5.00,000.00,018.6,017.6,000.0,027.2,020.0,9.5,0000.0,0001.77,0001.26,0001.04
2024-01-11 04:26:00,SystemResetWarning,0811.1,5.00,000.00,018.6,017.7,000.0,027.2,020.1,9.5,0000.0,0001.70,0001.25,0001.04
2024-01-11 04:27:00,SystemResetWarning,0811.1,5.00,000.00,018.7,018.2,000.0,027.2,020.4,9.5,0000.0,0001.76,0001.29,0001.08
2024-01-11 04:28:00,SystemResetWarning,0811.1,5.00,000.00,018.9,019.0,000.0,027.2,020.7,9.4,0000.0,0001.81,0001.33,0001.12
2024-01-11 04:29:00,SystemResetWarning,0811.1,4.99,000.00,019.0,019.1,000.0,027.2,020.5,9.4,0000.0,0002.25,0001.37,0001.17
2024-01-11 04:30:00,SystemResetWarning,0811.1,4.99,000.00,018.9,018.9,000.0,027.2,020.1,9.4,0000.0,0002.47,0001.45,0001.25
2024-01-11 04:31:00,SystemResetWarning,0811.1,4.99,000.00,018.9,018.6,000.0,027.2,020.0,9.4,0000.0,0002.56,0001.54,0001.35
2024-01-11 04:32:00,SystemResetWarning,0811.1,5.01,000.00,018.9,018.3,000.0,027.2,020.0,9.4,0000.0,0002.65,0001.64,0001.46
2024-01-11 04:33:00,SystemResetWarning,0811.1,5.01,000.00,018.8,018.2,000.0,027.2,020.0,9.5,0000.0,0002.80,0001.75,0001.57
2024-01-11 04:34:00,SystemResetWarning,0811.2,4.99,000.00,018.8,018.0,000.0,027.2,020.0,9.5,0000.0,0003.00,0001.90,0001.67
2024-01-11 04:35:00,SystemResetWarning,0811.1,4.99,000.00,018.8,017.9,000.0,027.3,020.0,9.5,0000.0,0003.15,0002.02,0001.78
2024-01-11 04:36:00,SystemResetWarning,0811.2,4.99,000.00,018.8,017.8,000.0,027.2,020.0,9.5,0000.0,0003.24,0002.12,0001.88
2024-01-11 04:37:00,SystemResetWarning,0811.2,5.00,000.00,018.8,017.8,000.0,027.3,020.0,9.6,0000.0,0003.40,0002.24,0001.97
2024-01-11 04:38:00,SystemResetWarning,0811.3,5.01,000.00,018.8,017.8,000.0,027.2,020.0,9.6,0000.0,0003.48,0002.32,0002.06
2024-01-11 04:39:00,SystemResetWarning,0811.2,5.01,000.00,018.8,017.9,000.0,027.2,020.0,9.6,0000.0,0003.50,0002.38,0002.14
2024-01-11 04:40:00,SystemResetWarning,0811.2,4.99,000.00,018.8,017.9,000.0,027.2,020.0,9.6,0000.0,0003.33,0002.46,0002.21
2024-01-11 04:41:00,SystemResetWarning,0811.2,5.00,000.00,018.7,017.9,000.0,027.2,020.0,9.6,0000.0,0004.11,0002.50,0002.25
2024-01-11 04:42:00,SystemResetWarning,0811.2,5.00,000.00,018.7,017.9,000.0,027.2,020.0,9.6,0000.0,0004.17,0002.54,0002.28
2024-01-11 04:43:00,SystemResetWarning,0811.2,5.00,000.00,018.7,017.8,000.0,027.3,020.0,9.6,0000.0,0004.21,0002.54,0002.26
2024-01-11 04:44:00,SystemResetWarning,0811.3,5.00,000.00,018.7,017.7,000.0,027.3,020.0,9.6,0000.0,0004.63,0002.55,0002.25
2024-01-11 04:45:00,SystemResetWarning,0811.3,4.99,000.00,018.7,017.7,000.0,027.3,020.0,9.6,0000.0,0005.04,0002.50,0002.23
2024-01-11 04:46:00,SystemResetWarning,0811.3,5.00,000.00,018.7,017.7,000.0,027.3,020.0,9.6,0000.0,0005.05,0002.50,0002.23
2024-01-11 04:47:00,SystemResetWarning,0811.3,5.00,000.00,018.7,017.7,000.0,027.3,020.0,9.6,0000.0,0005.11,0002.52,0002.25
2024-01-11 04:48:00,SystemResetWarning,0811.2,5.01,000.00,018.7,017.7,000.0,027.3,020.0,9.6,0000.0,0005.18,0002.53,0002.26
2024-01-11 04:49:00,SystemResetWarning,0811.3,5.01,000.00,018.7,017.7,000.0,027.3,020.0,9.6,0000.0,0005.32,0002.59,0002.27
2024-01-11 04:50:00,SystemResetWarning,0811.3,5.00,000.00,018.7,017.7,000.0,027.3,020.0,9.5,0000.0,0005.37,0002.61,0002.27
2024-01-11 04:51:00,SystemResetWarning,0811.3,4.99,000.00,018.7,017.6,000.0,027.3,020.0,9.5,0000.0,0005.38,0002.62,0002.28
2024-01-11 04:52:00,SystemResetWarning,0811.3,5.00,000.00,018.7,017.6,000.0,027.3,020.0,9.5,0000.0,0004.43,0002.65,0002.30
2024-01-11 04:53:00,SystemResetWarning,0811.3,5.00,000.00,018.7,017.6,000.0,027.2,020.0,9.5,0000.0,0004.45,0002.67,0002.31
2024-01-11 04:54:00,SystemResetWarning,0811.3,4.99,000.00,018.7,017.6,000.0,027.2,020.0,9.5,0000.0,0004.43,0002.68,0002.33
2024-01-11 04:55:00,SystemResetWarning,0811.3,4.99,000.00,018.7,017.6,000.0,027.2,020.0,9.5,0000.0,0004.37,0002.70,0002.34
2024-01-11 04:56:00,SystemResetWarning,0811.2,5.00,000.00,018.7,017.6,000.0,027.2,020.1,9.5,0000.0,0003.67,0002.72,0002.37
2024-01-11 04:57:00,SystemResetWarning,0811.2,5.02,000.00,018.8,018.1,000.0,027.2,020.4,9.5,0000.0,0003.77,0002.77,0002.38
2024-01-11 04:58:00,SystemResetWarning,0811.2,4.99,000.00,018.9,018.9,000.0,027.2,020.7,9.4,0000.0,0003.84,0002.79,0002.37
2024-01-11 04:59:00,SystemResetWarning,0811.1,4.98,000.00,019.0,018.9,000.0,027.2,020.3,9.4,0000.0,0003.83,0002.78,0002.34
